Regional Weather Roundup
Issued by NWS Glasgow, MT

Home | Current Version | Previous Version | Text Only | Print | Product List | Glossary On
Versions: 1 2 3 4 5 6 7 8 9 10 11 12 13 14 15 16 17 18 19 20 21 22 23 24 25 26 27
000
ASUS45 KGGW 290815
RWRGGW
HOURLY REGIONAL WEATHER ROUNDUP FOR NORTHEAST MONTANA
NATIONAL WEATHER SERVICE GLASGOW MONTANA
200 AM MDT THU SEP 29 2016

NOTE: "FAIR" INDICATES FEW OR NO CLOUDS BELOW 12,000 FEET WITH NO
SIGNIFICANT WEATHER AND/OR OBSTRUCTIONS TO VISISBILITY.

NORTHEAST MONTANA


CITY           SKY/WX    TMP DP  RH WIND       PRES   REMARKS
GLASGOW        CLEAR     57  51  80 E13       30.14F
PLENTYWOOD       N/A     56  37  49 SE6         N/A
WOLF POINT     CLEAR     57  48  72 NE7       30.18F
JORDAN           N/A     58  51  78 SE7       30.13F
WINNETT          N/A     49  47  93 CALM        N/A
SIDNEY         CLEAR     55  38  52 CALM      30.25F
GLENDIVE       CLEAR     59  41  51 S13       30.24F
MALTA            N/A     52  51  97 E2          N/A
OPHEIM           N/A     54  48  82 SE7       29.98F

FORT PECK REPORTS


CITY           SKY/WX    TMP DP  RH WIND       PRES   REMARKS
FORT PECK        N/A     63  51  65 E13         N/A
THE PINES        N/A     63  51  65 CALM        N/A

SOUTHEAST MONTANA


CITY           SKY/WX    TMP DP  RH WIND       PRES   REMARKS
BILLINGS       CLEAR     54  49  83 W8        30.15F
MILES CITY     CLEAR     62  44  51 S12G21    30.18S
BAKER          CLEAR     53  35  50 SE21      30.27F
LIVINGSTON     CLEAR     45  43  93 NW5       30.20F

CENTRAL MONTANA


CITY           SKY/WX    TMP DP  RH WIND       PRES   REMARKS
HAVRE          CLEAR     47  46  97 CALM      30.09F
LEWISTOWN      CLEAR     48  42  80 SW3       30.14F
GREAT FALLS    CLEAR     45  42  89 SW6       30.13F
CUT BANK       CLEAR     40  38  93 N5        30.13F
HELENA         CLEAR     51  43  74 W5        30.14F
BUTTE          CLEAR     47  40  76 CALM      30.20S
BOZEMAN        CLEAR     49  44  83 W3        30.18S

WESTERN MONTANA


CITY           SKY/WX    TMP DP  RH WIND       PRES   REMARKS
MISSOULA       CLEAR     57  46  66 S5        30.04S
KALISPELL      NOT AVBL

NORTH DAKOTA


CITY           SKY/WX    TMP DP  RH WIND       PRES   REMARKS
WILLISTON      CLEAR     55  38  52 S7        30.28R
DICKINSON      CLEAR     48  41  76 SE13      30.30F
MINOT          CLEAR     43  42  97 E8        30.34S
BISMARCK       CLEAR     44  42  93 SE5       30.38F

SOUTHERN SASKATCHEWAN


CITY           SKY/WX    TMP DP  RH WIND       PRES   REMARKS
REGINA         MOCLDY    54  39  58 SE17G23   30.22F
ESTEVAN        PTCLDY    46  45  93 E9        30.28F
SWIFT CURRENT  CLEAR     46  43  87 E12       30.16F





USA.gov is the U.S. government's official web portal to all federal, state and local government web resources and services.